Regional Weather Roundup
Issued by NWS Sioux Falls, SD

Home | Current Version | Previous Version | Graphics & Text | Print | Product List | Glossary On
Versions: 1 2 3 4 5 6 7 8 9 10 11 12 13 14 15 16 17 18 19 20 21 22 23 24 25 26 27 28 29 30 31 32 33 34 35 36 37 38 39 40 41 42 43 44 45 46 47 48 49 50
000
ASUS43 KFSD 302102
RWRFSD

WEATHER ROUNDUP FOR SE SOUTH DAKOTA/SW MINNESOTA/NW IOWA
NATIONAL WEATHER SERVICE SIOUX FALLS SD
400 PM CDT TUE SEP 30 2014

NOTE: "FAIR" INDICATES FEW OR NO CLOUDS BELOW 12,000 FEET WITH NO
SIGNIFICANT WEATHER AND OR OBSTRUCTIONS TO VISIBILITY.


SDZ038>040-050-052>070-302200-
SOUTHEAST SOUTH DAKOTA

CITY           SKY/WX    TMP DP  RH WIND       PRES   REMARKS
CHAMBERLAIN    CLOUDY    71  47  43 S25G33    29.56R
HURON          PTSUNNY   73  61  65 SE20G31   29.53F
MADISON        CLOUDY    64  64 100 SE21G32   29.70F
MITCHELL       MOSUNNY   77  48  35 S21G32    29.58F
SIOUX FALLS    CLOUDY    65  61  87 S20G29    29.72F
WINNER         MOCLDY    74  45  35 SW25G37   29.56R
YANKTON        MOSUNNY   75  61  60 SE23      29.67F
$$

MNZ071-072-080-081-089-090-097-098-302200-
SOUTHWEST MINNESOTA

CITY           SKY/WX    TMP DP  RH WIND       PRES   REMARKS
FAIRMONT       PTSUNNY   64  52  63 SE15      29.86F
JACKSON        CLOUDY    63  54  72 SE14      29.86S
LUVERNE        CLOUDY    64  59  82 SE18      29.78F
MARSHALL       CLOUDY    63  52  67 S25       29.78F
MONTEVIDEO     CLOUDY    57  48  72 S13G22    29.81R
PIPESTONE      PTSUNNY   63  55  77 S14G25    29.77R
REDWOOD FALLS  PTSUNNY   60  49  66 SE20G30   29.82F
TRACY          CLOUDY    62  55  76 SE17G23   29.82S
WINDOM         PTSUNNY   63  54  72 SE13      29.85R
WORTHINGTON    CLOUDY    59  55  88 SE10G17   29.85R
$$

IAZ001>003-012>014-020>022-031-032-NEZ013-014-SDZ071-302200-
NORTHWEST IOWA

CITY           SKY/WX    TMP DP  RH WIND       PRES   REMARKS
CHEROKEE       RAIN      63  63 100 SE3       29.84S
DENISON        LGT RAIN  66  64  94 NW6       29.81R
ESTHERVILLE    PTSUNNY   63  54  72 SE15G21   29.86S
LE MARS        CLOUDY    64  63  94 SW18G39   29.78F
ORANGE CITY    DRIZZLE   64  61  88 SE7G16    29.78F
SHELDON        LGT RAIN  61  61 100 SE13G25   29.77F
SIOUX CITY     CLOUDY    65  63  93 S13G22    29.78F
SPENCER        CLOUDY    64  56  75 SE10      29.85S
STORM LAKE     LGT RAIN  63  61  94 E6G14     29.85S
$$

ABBREVIATIONS USED IN REMARKS
   TC - TEMPERATURE IN CELSIUS
  WCI - WIND CHILL INDEX
   HX - HEAT INDEX
  VSB - VISIBILITY



USA.gov is the U.S. government's official web portal to all federal, state and local government web resources and services.